AKDT,Max TemperatureF,Mean TemperatureF,Min TemperatureF,Max Dew PointF,MeanDew PointF,Min DewpointF,Max Humidity, Mean Humidity, Min Humidity, Max Sea Level PressureIn, Mean Sea Level PressureIn, Min Sea Level PressureIn, Max VisibilityMiles, Mean VisibilityMiles, Min VisibilityMiles, Max Wind SpeedMPH, Mean Wind SpeedMPH, Max Gust SpeedMPH,PrecipitationIn, CloudCover, Events, WindDirDegrees
2013-5-1,39,37,35,36,32,28,93,82,70,29.67,29.58,29.54,10,9,2,8,5,,0.03,8,,81
2013-5-2,37,34,32,30,28,21,87,73,60,29.91,29.79,29.68,10,10,3,20,9,28,0.00,8,,260
2013-5-3,37,32,28,25,21,18,70,62,52,30.03,29.99,29.92,10,10,10,21,15,30,0.00,3,,265
2013-5-4,37,34,30,23,20,18,75,60,48,30.27,30.10,29.98,10,10,10,24,17,37,0.00,2,,262
2013-5-5,39,34,28,25,20,18,74,61,42,30.30,30.28,30.25,10,10,10,18,12,23,0.00,2,,248
2013-5-6,39,34,30,28,26,23,80,68,56,30.28,30.24,30.21,10,10,8,9,2,,0.00,6,,125
2013-5-7,42,38,35,36,31,27,93,76,61,30.23,30.21,30.20,10,10,5,10,3,,0.00,8,,85
2013-5-8,39,38,37,36,34,32,93,86,81,30.21,30.17,30.14,10,7,2,18,10,24,0.20,8,,68
2013-5-9,39,38,37,36,35,34,93,86,81,30.22,30.17,30.13,10,6,2,18,11,26,0.60,8,,72
2013-5-10,50,44,37,36,33,28,87,69,47,30.22,30.14,30.05,10,10,10,23,7,29,0.00,4,,254
2013-5-11,39,37,35,30,28,27,75,68,61,30.05,29.88,29.76,10,10,10,26,16,36,0.00,5,,263
2013-5-12,46,40,35,32,29,28,75,67,53,29.76,29.71,29.67,10,10,5,26,22,37,0.00,2,,259
2013-5-13,44,38,33,30,28,25,75,65,53,29.71,29.66,29.63,10,10,10,21,13,28,0.00,0,,261
2013-5-14,46,40,33,30,27,23,81,62,40,29.77,29.73,29.70,10,10,10,22,10,28,0.00,1,,248
2013-5-15,44,40,35,36,32,27,93,77,61,29.70,29.61,29.57,10,10,8,12,4,,0.00,7,,71
2013-5-16,41,38,35,34,27,21,81,66,52,29.71,29.62,29.55,10,10,6,26,12,38,0.00,6,,265
2013-5-17,37,32,26,28,20,12,75,65,51,30.04,29.84,29.67,10,8,1,32,19,46,0.00,8,,267
2013-5-18,39,32,26,21,19,14,74,57,42,30.47,30.25,30.05,10,9,2,25,15,38,0.00,6,,265
2013-5-19,44,38,32,28,21,18,64,53,42,30.61,30.56,30.47,10,10,10,10,7,17,0.00,1,,233
2013-5-20,46,42,39,36,34,30,76,69,61,30.57,30.50,30.42,10,10,8,15,6,26,0.00,8,,115
2013-5-21,48,45,42,39,37,34,81,73,66,30.42,30.23,30.02,10,10,7,16,7,31,0.09,8,,132
2013-5-22,46,42,39,39,38,36,93,82,71,30.11,30.05,30.01,10,10,0,10,4,,0.00,8,,1
2013-5-23,53,46,39,39,37,36,87,71,54,30.18,30.15,30.11,10,10,10,7,2,,0.00,7,,321
2013-5-24,55,47,39,39,37,34,87,71,51,30.18,30.08,29.97,10,10,10,15,4,23,0.00,6,,140
2013-5-25,42,40,39,37,36,36,87,84,76,29.96,29.81,29.72,10,7,3,17,12,25,0.20,8,,104
2013-5-26,42,40,39,37,37,36,93,84,81,29.74,29.73,29.71,10,8,2,20,9,26,0.13,8,,79
2013-5-27,42,42,41,39,38,37,87,84,81,29.75,29.73,29.72,10,7,2,20,12,25,0.84,8,,85
2013-5-28,53,48,42,41,39,37,87,75,58,29.79,29.76,29.72,10,10,5,8,4,,0.04,6,,34
2013-5-29,60,51,42,43,39,37,87,67,45,29.78,29.74,29.70,10,10,5,12,2,,0.00,4,,355
2013-5-30,48,44,41,39,38,37,93,80,66,30.00,29.90,29.79,10,9,2,14,5,18,0.00,7,,113
2013-5-31,48,45,42,41,39,37,87,82,76,30.19,30.10,30.01,10,9,2,12,6,,0.00,8,,70